Back to catalog

COSMOS 2251 DEB

AliveVLEO
NORAD 34861·DEBRIS·🇷🇺 Russia

Launched Jun 16, 1993 from Plesetsk Cosmodrome

Loading…

Next Passes (next 24 hours)

TLE

FreshSource: Space-Track

Epoch: Sep 13, 2026, 19:10 UTC

1 34861U 93036ACF 26256.79925344  .00648970  00000-0  42973-2 0  9998
2 34861  73.9872 188.7769 0022088 186.7415 200.2782 15.73337901922854

Track COSMOS 2251 DEB in real time with AllMySat

Download on the App Store